Wind_Speed
17 16 15 13 11 10 9 8 8 9 9 9 10 11 12 13 14 14 14 15 16 17 18 18 18 19 19 19 20 20 21 21 21 22 22 23 23 24 25 26 27 27 28
12 10 9 8 8 7 7 6 6 6 7 8 9 10 10 11 11 12 13 14 15 16 16 16 17 17 17 17 18 18 19 20 21 21 22 22 23 23 24 26 27 28 29
2 4 4 4 3 3 3 3 4 5 6 7 9 10 11 11 12 12 13 14 15 15 15 16 16 16 16 16 17 17 18 19 20 21 21 22 23 24 25 26 27 28 29
4 3 2 2 2 1 0 2 4 5 7 9 10 11 12 13 14 14 15 15 16 16 16 16 16 16 16 17 17 17 18 19 20 20 21 22 23 24 25 26 27 28 29
5 5 4 4 4 3 3 4 6 8 9 10 11 13 14 14 15 16 16 16 16 16 17 17 18 18 18 18 19 19 20 20 21 22 22 23 24 25 26 27 28 28 30
5 5 5 5 4 4 5 6 8 9 11 12 13 14 15 16 17 17 17 17 17 17 18 19 19 20 20 20 21 21 22 23 24 24 25 25 26 27 28 29 30 31 31
5 5 5 5 5 6 8 9 10 11 13 14 15 15 16 17 18 19 19 19 19 19 19 20 20 21 22 22 23 24 25 25 26 27 28 28 28 29 30 31 31 32 33
6 6 6 7 7 8 9 10 12 13 14 15 16 17 17 18 19 19 19 19 20 20 20 21 22 23 24 25 26 26 27 28 29 30 30 31 32 32 33 33 34 34 35
7 7 7 8 8 9 10 12 13 14 15 16 17 18 19 20 20 20 20 20 20 21 21 23 24 25 26 27 28 29 30 30 31 32 33 34 35 35 36 36 37 37 37
10 10 10 10 10 11 12 13 14 15 16 17 17 18 19 20 20 21 21 21 21 22 24 25 26 28 29 30 31 32 32 33 34 35 35 36 37 38 38 39 39 39 39
12 12 12 12 12 12 12 13 14 15 16 18 19 19 20 20 20 21 21 22 23 24 26 27 29 30 31 32 33 34 35 36 37 37 38 38 39 39 40 40 40 41 41
16 15 14 13 13 13 13 14 15 16 17 19 20 21 21 22 22 22 22 23 24 26 27 29 31 32 33 34 35 36 37 38 38 39 39 39 40 39 40 40 40 41 41
17 17 16 15 15 15 15 15 16 17 18 20 21 22 23 23 24 24 25 26 27 29 30 32 33 34 35 36 37 38 39 39 39 40 40 40 39 39 39 39 40 40 41
17 18 17 17 17 17 17 17 18 19 20 21 23 24 25 25 26 27 28 29 30 32 33 34 35 36 37 38 39 40 41 41 40 40 39 39 38 37 37 38 38 39 40
18 18 18 18 18 18 18 19 20 21 22 24 25 26 27 28 28 29 30 32 33 34 35 36 37 38 40 40 41 42 42 41 40 39 38 37 36 36 36 36 36 37 38
20 19 19 19 19 20 20 21 22 23 24 26 27 28 29 30 31 32 33 34 36 37 38 38 39 41 42 42 42 42 42 41 39 38 37 36 35 35 34 34 35 35 36
21 21 21 21 21 21 22 23 23 25 26 27 29 29 30 31 33 34 35 37 38 39 40 41 42 43 44 43 43 43 42 40 39 37 36 35 34 34 33 33 34 34 35
22 23 23 23 23 23 24 25 26 27 28 29 30 31 32 33 35 36 38 39 40 41 42 43 45 45 45 45 44 43 42 40 38 37 36 35 34 34 33 32 32 32 33
24 25 25 25 26 26 26 27 29 30 31 32 33 34 35 36 38 39 41 42 44 43 43 45 47 47 47 46 45 44 41 39 38 37 36 34 33 33 33 32 31 31 32
27 27 27 28 29 29 30 30 31 33 34 35 36 37 39 40 42 43 43 45 45 45 45 47 49 48 48 47 46 44 41 39 37 36 35 34 32 32 32 32 32 32 32
31 30 30 30 31 32 33 33 34 36 38 39 40 41 42 44 45 46 46 47 47 47 47 48 49 49 49 48 46 44 41 39 36 35 34 33 33 32 33 33 33 33 33
32 33 33 33 34 35 36 36 37 39 41 43 44 46 47 48 49 48 48 48 48 49 50 50 50 49 48 46 44 43 40 38 36 34 33 33 33 33 33 33 33 33 32
34 35 36 36 37 38 39 40 41 43 44 46 47 48 49 50 50 50 50 50 50 52 52 53 52 50 49 47 44 41 39 38 36 34 33 33 33 33 32 32 32 31 31
36 37 38 39 40 41 42 43 44 46 47 48 49 50 51 51 52 52 53 53 53 54 54 54 54 51 49 47 44 41 38 37 35 34 33 33 33 32 32 31 30 30 30
38 39 40 41 42 43 44 45 47 47 49 50 51 52 53 53 54 54 55 55 55 55 55 54 53 51 49 47 44 41 39 37 35 33 32 32 32 31 30 29 28 28 28
40 41 42 43 44 45 46 47 48 49 50 52 53 54 55 55 56 57 56 56 57 56 55 53 52 50 47 45 43 41 38 36 35 33 32 31 31 30 29 28 27 27 27
Wind_Direction
260 261 257 257 258 262 269 281 287 295 300 305 309 312 312 311 310 310 309 308 307 304 302 300 296 293 290 287 285 282 280 279 277 275 273 272 268 266 264 261 259 257 255
253 247 239 244 255 256 265 280 291 305 315 321 324 324 323 323 323 322 320 319 316 312 309 306 303 299 296 292 288 285 282 280 279 277 276 273 271 269 267 263 261 258 256
194 212 217 230 245 254 258 284 305 323 332 337 338 338 337 336 335 331 328 326 323 321 318 314 311 306 303 299 295 291 287 285 282 280 277 276 274 272 268 266 263 261 259
93 107 114 117 136 133 12 342 347 353 352 349 347 346 345 342 340 336 333 329 326 324 322 319 316 313 308 304 301 297 294 291 288 285 281 279 277 275 272 269 266 263 261
76 86 89 85 80 67 35 10 6 3 357 353 350 348 345 341 337 334 331 329 326 324 323 320 318 315 311 307 304 301 298 295 292 289 286 283 280 278 276 273 269 265 262
65 68 67 60 50 35 21 12 5 358 353 349 344 340 336 334 332 330 328 326 324 321 319 317 316 315 312 309 306 304 301 298 295 292 289 286 283 281 278 275 272 269 265
33 36 33 28 21 13 9 5 358 352 347 344 339 334 331 328 326 325 324 322 320 318 317 317 316 315 313 310 308 305 303 300 298 295 291 288 285 283 280 277 274 272 269
9 9 8 5 1 359 358 355 351 346 341 337 334 331 328 325 324 323 322 321 320 319 319 318 317 316 313 311 308 306 304 301 298 296 293 290 287 284 281 279 276 273 271
348 350 351 349 347 347 347 345 342 339 336 332 330 328 326 325 325 324 323 322 321 320 319 318 317 316 314 311 309 307 304 301 299 296 293 290 288 285 282 279 276 274 271
334 337 339 339 337 336 335 334 333 332 330 328 327 325 323 322 322 321 321 320 320 319 319 319 317 315 313 312 310 308 305 303 300 297 294 291 288 285 282 279 276 273 271
324 325 326 325 325 324 323 323 324 324 324 324 323 322 320 320 320 319 318 318 318 318 319 319 319 317 315 313 311 309 307 304 301 298 295 292 289 286 282 279 276 273 271
316 316 317 316 314 314 314 315 316 318 319 319 320 320 319 318 318 317 316 315 315 316 318 318 319 318 317 315 313 311 308 306 303 299 296 292 289 285 282 279 276 273 271
306 306 308 307 305 305 306 308 309 311 313 314 315 317 317 316 316 315 315 315 315 316 317 317 318 318 318 317 315 313 310 307 304 300 297 293 289 285 282 279 276 273 271
300 300 301 301 299 299 300 303 306 308 310 313 315 315 316 316 316 315 315 315 315 315 316 317 318 319 319 319 317 314 312 309 305 301 298 294 289 285 282 279 276 273 271
297 296 297 297 296 296 298 301 304 307 310 312 314 314 315 315 316 316 316 315 315 315 315 316 318 318 319 319 318 316 313 310 306 302 298 294 290 286 283 280 277 274 272
295 295 296 296 295 295 297 300 303 306 309 311 312 313 313 314 314 315 316 315 315 314 314 315 317 318 319 319 318 316 314 310 307 303 299 295 291 288 285 281 278 275 272
295 295 296 296 295 295 297 299 302 305 307 309 310 311 311 311 313 314 315 316 316 315 315 316 317 317 319 320 319 316 314 311 307 303 299 296 292 289 286 282 280 277 273
298 298 297 296 295 295 296 299 301 303 305 306 307 308 310 311 313 313 315 316 316 316 316 316 317 317 317 318 317 316 314 310 306 302 299 296 293 290 287 285 282 278 274
298 296 295 296 296 295 295 297 299 302 304 304 305 307 309 310 312 313 315 316 316 316 316 317 317 317 316 316 316 315 313 309 306 302 299 297 293 291 288 286 283 279 276
296 295 295 295 295 295 296 297 298 301 303 304 306 307 309 310 310 312 313 315 316 315 316 319 318 317 316 315 315 314 312 308 305 302 299 297 294 291 289 286 283 280 277
292 293 292 292 293 294 295 297 299 301 302 303 305 307 308 309 309 311 313 314 315 315 315 318 319 318 316 315 313 312 310 307 304 301 298 296 295 292 289 287 285 281 278
288 289 289 291 292 292 294 296 298 299 300 302 304 306 307 308 309 310 311 312 314 314 314 316 317 315 314 313 311 310 308 306 304 301 299 297 295 293 290 288 285 282 279
287 288 289 290 290 292 293 295 296 298 299 300 302 303 304 306 307 309 311 312 313 313 313 314 314 313 313 312 311 309 307 305 303 301 299 298 296 294 292 289 285 283 280
286 287 288 288 289 290 291 292 294 296 297 299 299 300 303 305 305 306 309 311 311 312 312 312 312 312 312 312 310 308 306 304 303 301 299 297 296 295 292 289 285 284 281
287 287 287 288 289 290 291 292 294 295 296 297 299 300 302 303 304 305 306 307 308 309 309 309 309 309 309 308 307 306 304 303 302 301 299 298 296 295 293 289 285 283 281
288 288 288 289 289 290 291 292 293 295 296 297 298 300 301 301 303 303 304 305 306 306 306 306 306 306 305 304 304 303 302 302 302 300 298 298 296 295 293 290 287 284 282
Height
5855 5855 5856 5858 5859 5861 5862 5862 5862 5862 5861 5860 5859 5858 5857 5856 5854 5853 5851 5849 5848 5847 5845 5844 5843 5842 5841 5841 5840 5840 5840 5840 5840 5840 5840 5841 5841 5842 5843 5844 5846 5847 5849
5851 5852 5854 5856 5857 5859 5860 5860 5860 5860 5859 5858 5857 5856 5855 5854 5852 5850 5848 5847 5845 5844 5842 5841 5840 5839 5838 5837 5836 5835 5835 5835 5835 5835 5835 5835 5836 5836 5837 5838 5839 5840 5841
5851 5852 5854 5856 5857 5858 5859 5859 5859 5858 5857 5857 5855 5854 5853 5851 5850 5848 5847 5845 5843 5841 5840 5838 5837 5835 5834 5833 5832 5831 5830 5830 5830 5829 5829 5829 5829 5830 5830 5831 5832 5833 5834
5852 5853 5855 5855 5856 5857 5858 5858 5857 5856 5856 5855 5853 5852 5851 5849 5848 5846 5844 5843 5841 5839 5837 5835 5834 5832 5831 5830 5829 5827 5826 5825 5825 5824 5824 5823 5823 5823 5823 5824 5825 5825 5826
5854 5854 5855 5856 5856 5856 5856 5856 5856 5855 5854 5853 5851 5850 5849 5847 5846 5844 5842 5840 5839 5837 5835 5833 5831 5829 5828 5826 5825 5823 5822 5821 5820 5819 5818 5817 5817 5816 5816 5817 5817 5818 5819
5856 5855 5855 5855 5855 5855 5855 5855 5854 5853 5852 5851 5849 5848 5847 5845 5843 5842 5840 5838 5836 5834 5832 5830 5828 5826 5824 5822 5820 5819 5817 5815 5814 5812 5811 5811 5810 5809 5809 5809 5809 5809 5811
5855 5855 5855 5855 5854 5854 5853 5853 5852 5851 5850 5849 5847 5846 5844 5843 5841 5839 5837 5835 5833 5831 5829 5827 5824 5822 5820 5818 5816 5814 5812 5809 5807 5806 5804 5803 5802 5801 5801 5801 5800 5800 5801
5855 5855 5854 5854 5853 5853 5852 5851 5850 5849 5848 5847 5845 5844 5842 5840 5838 5836 5834 5832 5829 5827 5825 5822 5820 5817 5815 5812 5810 5808 5805 5803 5801 5798 5797 5795 5793 5792 5792 5791 5791 5791 5792
5855 5854 5853 5853 5852 5851 5850 5849 5848 5847 5846 5845 5843 5841 5839 5837 5835 5832 5830 5828 5825 5823 5820 5818 5815 5812 5809 5806 5803 5801 5798 5795 5793 5790 5788 5786 5784 5783 5782 5781 5781 5781 5781
5854 5852 5851 5851 5850 5849 5848 5847 5846 5845 5844 5842 5841 5839 5837 5834 5831 5829 5826 5824 5821 5818 5815 5812 5809 5806 5803 5800 5796 5793 5790 5787 5784 5781 5778 5776 5774 5772 5771 5769 5769 5769 5769
5852 5851 5850 5849 5848 5847 5846 5845 5844 5843 5841 5839 5837 5835 5833 5831 5828 5826 5823 5819 5816 5813 5810 5807 5803 5800 5796 5792 5788 5785 5781 5777 5774 5771 5768 5765 5762 5760 5759 5758 5757 5756 5757
5849 5848 5847 5847 5846 5845 5844 5843 5841 5840 5838 5836 5834 5832 5829 5827 5824 5821 5818 5815 5811 5808 5804 5800 5796 5792 5788 5784 5780 5776 5771 5767 5763 5760 5756 5753 5751 5749 5747 5745 5744 5744 5744
5847 5846 5845 5844 5843 5842 5841 5840 5838 5837 5835 5833 5831 5828 5825 5822 5819 5816 5813 5809 5805 5801 5797 5793 5789 5785 5780 5775 5771 5766 5761 5757 5752 5748 5744 5741 5739 5737 5734 5733 5732 5731 5731
5845 5843 5842 5841 5840 5838 5837 5836 5834 5833 5831 5828 5826 5823 5820 5817 5814 5811 5807 5803 5799 5795 5791 5786 5781 5776 5771 5766 5761 5756 5751 5746 5741 5736 5733 5729 5727 5724 5722 5721 5720 5719 5719
5841 5840 5839 5837 5836 5835 5833 5831 5830 5828 5825 5823 5821 5818 5815 5812 5808 5805 5801 5797 5792 5788 5783 5778 5773 5768 5762 5757 5751 5746 5740 5735 5730 5725 5721 5718 5715 5713 5711 5709 5708 5707 5707
5837 5836 5835 5833 5832 5830 5829 5827 5825 5822 5820 5817 5815 5812 5809 5805 5801 5798 5794 5789 5785 5780 5775 5770 5764 5759 5753 5747 5741 5735 5730 5724 5719 5715 5711 5707 5704 5702 5700 5698 5697 5696 5696
5833 5831 5830 5829 5827 5825 5823 5821 5819 5817 5814 5811 5808 5805 5802 5798 5794 5790 5786 5781 5776 5771 5766 5761 5755 5749 5743 5737 5731 5724 5719 5713 5708 5704 5700 5697 5694 5691 5689 5687 5686 5685 5684
5828 5826 5825 5823 5822 5820 5817 5815 5813 5810 5807 5804 5801 5798 5794 5790 5786 5781 5777 5772 5767 5761 5756 5751 5745 5739 5733 5727 5721 5714 5709 5703 5698 5694 5690 5686 5683 5681 5679 5677 5676 5675 5674
5823 5821 5819 5817 5815 5813 5811 5808 5806 5803 5800 5797 5793 5790 5786 5782 5777 5772 5767 5762 5756 5751 5746 5740 5735 5728 5722 5716 5710 5704 5698 5693 5688 5683 5680 5676 5673 5671 5668 5667 5666 5664 5663
5817 5815 5812 5810 5808 5805 5803 5800 5798 5794 5791 5788 5784 5781 5777 5772 5767 5762 5757 5751 5746 5740 5735 5729 5724 5718 5711 5705 5699 5693 5688 5683 5678 5674 5669 5666 5664 5661 5658 5656 5655 5654 5653
5810 5808 5805 5803 5800 5797 5795 5792 5789 5785 5782 5778 5774 5770 5766 5762 5757 5752 5746 5741 5735 5730 5724 5718 5712 5706 5700 5694 5688 5682 5677 5672 5668 5663 5660 5656 5654 5651 5648 5646 5644 5643 5642
5802 5800 5796 5794 5792 5789 5786 5783 5780 5776 5772 5768 5764 5760 5755 5750 5746 5741 5736 5730 5724 5718 5712 5706 5701 5695 5689 5683 5677 5671 5666 5662 5658 5654 5650 5646 5643 5641 5638 5636 5634 5632 5631
5793 5791 5788 5785 5782 5779 5776 5773 5770 5766 5762 5758 5753 5749 5744 5739 5734 5729 5724 5718 5712 5706 5700 5695 5689 5683 5677 5672 5666 5661 5656 5651 5647 5644 5640 5637 5633 5630 5628 5625 5623 5621 5620
5783 5781 5778 5775 5772 5769 5766 5763 5759 5755 5751 5747 5742 5737 5732 5727 5722 5717 5712 5706 5700 5694 5688 5682 5676 5670 5665 5659 5654 5650 5645 5641 5638 5634 5630 5627 5623 5620 5618 5615 5613 5611 5610
5773 5770 5768 5765 5762 5758 5755 5751 5747 5744 5739 5735 5730 5725 5720 5715 5710 5705 5700 5694 5688 5682 5676 5670 5663 5658 5653 5647 5643 5638 5634 5631 5627 5624 5621 5617 5614 5611 5608 5606 5604 5602 5601
5762 5759 5756 5753 5750 5746 5743 5739 5735 5731 5726 5722 5717 5711 5706 5701 5696 5691 5686 5681 5675 5670 5664 5658 5652 5646 5641 5636 5632 5628 5624 5620 5617 5614 5611 5607 5604 5602 5599 5597 5595 5593 5591